EW4921 Weather Reports


Display with metric or nautical units.
time (UTC)temp
F
wind
direction
speed
MPH
gust
MPH
rain 1hr
in
rain 24hr
in
rain mn
in
humidity
%
barometer
mb
20260906152037 63 169 2.0 4.0 0.00 0.00 0.00 77 1015.1
20260906151537 63 164 1.0 3.0 0.00 0.00 0.00 78 1015.0
20260906151028 63 240 1.0 3.0 0.00 0.00 0.00 78 1015.0
20260906150602 63 213 1.0 4.0 0.00 0.00 0.00 78 1015.1
20260906150027 63 250 3.0 4.0 0.00 0.00 0.00 77 1015.0
20260906145545 63 178 1.0 5.0 0.00 0.00 0.00 78 1014.8
20260906145023 63 197 2.0 6.0 0.00 0.00 0.00 77 1014.9
20260906144516 64 122 2.0 5.0 0.00 0.00 0.00 76 1015.0
20260906144034 64 108 2.0 5.0 0.00 0.00 0.00 73 1014.9
20260906143533 65 233 3.0 5.0 0.00 0.00 0.00 71 1014.8
20260906143021 65 197 1.0 5.0 0.00 0.00 0.00 69 1014.6
20260906142522 65 152 2.0 7.0 0.00 0.00 0.00 68 1014.6
20260906142021 65 117 2.0 7.0 0.00 0.00 0.00 65 1014.6
20260906141521 66 131 3.0 9.0 0.00 0.00 0.00 64 1014.6
20260906141019 66 314 2.0 9.0 0.00 0.00 0.00 63 1014.3
20260906140546 67 89 1.0 11.0 0.00 0.00 0.00 61 1014.3
20260906140035 67 272 2.0 11.0 0.00 0.00 0.00 61 1014.2
20260906135517 67 120 3.0 8.0 0.00 0.00 0.00 61 1014.4
20260906135015 67 130 3.0 11.0 0.00 0.00 0.00 60 1014.2
20260906134532 67 89 3.0 11.0 0.00 0.00 0.00 61 1014.2
20260906134043 67 25 2.0 8.0 0.00 0.00 0.00 64 1014.1
20260906133523 68 28 3.0 8.0 0.00 0.00 0.00 64 1014.4
20260906133037 68 53 2.0 11.0 0.00 0.00 0.00 63 1014.5
20260906132518 69 324 4.0 11.0 0.00 0.00 0.00 63 1014.6
20260906132015 68 124 3.0 7.0 0.00 0.00 0.00 56 1014.4
20260906131537 68 110 2.0 8.0 0.00 0.00 0.00 56 1014.2
20260906131028 67 102 3.0 7.0 0.00 0.00 0.00 57 1014.2
20260906130547 66 269 3.0 7.0 0.00 0.00 0.00 58 1013.9
20260906130052 64 160 2.0 6.0 0.00 0.00 0.00 59 1013.9
20260906125554 64 117 1.0 3.0 0.00 0.00 0.00 70 1013.8
20260906125025 63 328 1.0 2.0 0.00 0.00 0.00 70 1013.8
20260906124542 63 1 1.0 2.0 0.00 0.00 0.00 71 1013.9
20260906124037 63 89 0.0 1.0 0.00 0.00 0.00 71 1014.1
20260906123600 63 46 0.0 1.0 0.00 0.00 0.00 71 1014.0
20260906123030 63 178 0.0 1.0 0.00 0.00 0.00 71 1013.7
20260906122553 63 1 0.0 1.0 0.00 0.00 0.00 71 1013.6
20260906122024 63 1 0.0 1.0 0.00 0.00 0.00 71 1013.5
20260906121519 63 135 0.0 1.0 0.00 0.00 0.00 70 1013.5
20260906121031 63 89 0.0 1.0 0.00 0.00 0.00 70 1013.5
20260906120537 63 63 0.0 2.0 0.00 0.00 0.00 70 1013.4
20260906120031 63 1 0.0 2.0 0.00 0.00 0.00 70 1013.3
20260906115533 63 89 0.0 2.0 0.00 0.00 0.00 70 1013.3
20260906115022 63 46 0.0 2.0 0.00 0.00 0.00 69 1013.3
20260906114514 63 46 0.0 1.0 0.00 0.00 0.00 69 1013.4
20260906114025 63 28 0.0 2.0 0.00 0.00 0.00 70 1013.4
20260906113521 63 89 0.0 2.0 0.00 0.00 0.00 70 1013.2
20260906113020 63 1 0.0 1.0 0.00 0.00 0.00 69 1013.3
20260906112524 63 46 0.0 1.0 0.00 0.00 0.00 69 1013.5
20260906112015 63 46 0.0 2.0 0.00 0.00 0.00 69 1013.6
20260906111530 63 46 0.0 3.0 0.00 0.00 0.00 68 1013.6
20260906111023 63 178 1.0 3.0 0.00 0.00 0.00 68 1013.4
20260906110539 63 46 0.0 2.0 0.00 0.00 0.00 69 1013.4
20260906110052 63 331 0.0 2.0 0.00 0.00 0.00 70 1013.2
20260906105531 63 46 0.0 2.0 0.00 0.00 0.00 70 1013.3
20260906105020 64 46 0.0 1.0 0.00 0.00 0.00 70 1013.4
20260906104521 64 331 0.0 2.0 0.00 0.00 0.00 69 1013.5
20260906104019 64 46 0.0 2.0 0.00 0.00 0.00 69 1013.5
20260906103542 64 1 0.0 2.0 0.00 0.00 0.00 68 1013.5
20260906103019 64 89 0.0 2.0 0.00 0.00 0.00 68 1013.5
20260906102521 63 89 1.0 2.0 0.00 0.00 0.00 68 1013.5
20260906102018 63 46 0.0 1.0 0.00 0.00 0.00 69 1013.4
20260906101519 63 1 0.0 2.0 0.00 0.00 0.00 70 1013.5
20260906101019 63 46 1.0 2.0 0.00 0.00 0.00 69 1013.5
20260906100543 63 46 0.0 1.0 0.00 0.00 0.00 70 1013.4
20260906100030 63 46 0.0 1.0 0.00 0.00 0.00 70 1013.5
20260906095532 63 1 0.0 1.0 0.00 0.00 0.00 70 1013.5
20260906095018 63 46 0.0 1.0 0.00 0.00 0.00 70 1013.7
20260906094520 63 1 0.0 1.0 0.00 0.00 0.00 69 1013.5
20260906094040 63 314 0.0 1.0 0.00 0.00 0.00 70 1013.5
20260906093542 62 89 0.0 1.0 0.00 0.00 0.00 70 1013.5
20260906093020 62 135 0.0 1.0 0.00 0.00 0.00 69 1013.5
20260906092517 62 63 1.0 1.0 0.00 0.00 0.00 69 1013.4
20260906092030 62 314 0.0 1.0 0.00 0.00 0.00 70 1013.5
20260906091533 62 46 1.0 2.0 0.00 0.00 0.00 70 1013.5
20260906091024 62 1 0.0 1.0 0.00 0.00 0.00 71 1013.5
20260906090600 62 46 0.0 2.0 0.00 0.00 0.00 71 1013.6
20260906090042 62 1 0.0 1.0 0.00 0.00 0.00 70 1013.8
20260906085524 62 89 0.0 1.0 0.00 0.00 0.00 70 1013.8
20260906085042 61 89 0.0 1.0 0.00 0.00 0.00 70 1013.8
20260906084536 61 1 0.0 1.0 0.00 0.00 0.00 70 1013.8
20260906084048 61 46 0.0 2.0 0.00 0.00 0.00 70 1013.7
20260906083523 61 178 0.0 3.0 0.00 0.00 0.00 71 1013.7
20260906083020 61 20 1.0 3.0 0.00 0.00 0.00 71 1013.7
20260906082521 61 331 1.0 2.0 0.00 0.00 0.00 70 1013.7
20260906082032 60 46 0.0 2.0 0.00 0.00 0.00 71 1013.8
20260906081532 60 1 0.0 2.0 0.00 0.00 0.00 71 1013.9
20260906081022 60 15 0.0 2.0 0.00 0.00 0.00 72 1014.0
20260906080544 61 1 0.0 2.0 0.00 0.00 0.00 72 1014.0
20260906080019 61 1 1.0 2.0 0.00 0.00 0.00 72 1014.0
20260906075540 61 46 1.0 2.0 0.00 0.00 0.00 72 1014.0
20260906075019 61 1 0.0 2.0 0.00 0.00 0.00 71 1013.9
20260906074537 61 1 1.0 2.0 0.00 0.00 0.00 72 1014.0
20260906074031 61 1 0.0 2.0 0.00 0.00 0.00 71 1014.0
20260906073527 61 1 0.0 1.0 0.00 0.00 0.00 71 1014.0
20260906073024 61 28 0.0 2.0 0.00 0.00 0.00 72 1013.9
20260906072544 61 1 0.0 2.0 0.00 0.00 0.00 72 1013.8
20260906072036 61 89 0.0 2.0 0.00 0.00 0.00 72 1013.8
20260906071534 61 1 1.0 2.0 0.00 0.00 0.00 72 1014.0
20260906071022 61 89 0.0 2.0 0.00 0.00 0.00 72 1013.9
20260906070546 62 28 1.0 2.0 0.00 0.00 0.00 71 1013.9
20260906070030 62 63 0.0 2.0 0.00 0.00 0.00 71 1013.8
20260906065525 62 1 1.0 2.0 0.00 0.00 0.00 71 1014.0
20260906065024 62 1 1.0 3.0 0.00 0.00 0.00 70 1013.9
20260906064526 62 1 2.0 3.0 0.00 0.00 0.00 69 1013.9
20260906064035 62 347 2.0 3.0 0.00 0.00 0.00 69 1013.8
20260906063534 62 1 1.0 2.0 0.00 0.00 0.00 68 1013.9
20260906063045 62 15 1.0 2.0 0.00 0.00 0.00 68 1014.0
20260906062540 62 28 1.0 2.0 0.00 0.00 0.00 69 1014.0
20260906062028 62 28 1.0 2.0 0.00 0.00 0.00 68 1014.2
20260906061519 62 46 1.0 2.0 0.00 0.00 0.00 67 1014.2
20260906061021 62 20 1.0 2.0 0.00 0.00 0.00 67 1014.1
20260906060542 62 20 1.0 2.0 0.00 0.00 0.00 67 1014.1
20260906060056 63 1 1.0 2.0 0.00 0.00 0.00 67 1014.1
20260906055536 63 1 0.0 2.0 0.00 0.00 0.00 68 1014.2
20260906055028 63 28 0.0 1.0 0.00 0.00 0.00 68 1014.2
20260906054545 63 46 0.0 1.0 0.00 0.00 0.00 68 1014.2
20260906054055 63 89 0.0 1.0 0.00 0.00 0.00 68 1014.2
20260906053537 63 28 1.0 1.0 0.00 0.00 0.00 68 1014.3
20260906053048 63 56 0.0 1.0 0.00 0.00 0.00 68 1014.3
20260906052542 64 46 1.0 1.0 0.00 0.00 0.00 68 1014.3
20260906052034 64 20 1.0 1.0 0.00 0.00 0.00 67 1014.3
20260906051535 64 20 1.0 1.0 0.00 0.00 0.00 67 1014.4
20260906051046 64 72 0.0 2.0 0.00 0.00 0.00 68 1014.4
20260906050550 64 46 0.0 2.0 0.00 0.00 0.00 67 1014.5
20260906050059 65 1 0.0 1.0 0.00 0.00 0.00 68 1014.5
20260906045603 65 1 0.0 1.0 0.00 0.00 0.00 67 1014.6
20260906045034 65 1 0.0 2.0 0.00 0.00 0.00 68 1014.6
20260906044555 65 89 0.0 2.0 0.00 0.00 0.00 68 1014.6
20260906044026 66 46 0.0 1.0 0.00 0.00 0.00 68 1014.6
20260906043543 66 89 0.0 1.0 0.00 0.00 0.00 68 1014.7
20260906043054 66 1 1.0 1.0 0.00 0.00 0.00 69 1014.5
20260906042536 66 178 0.0 1.0 0.00 0.00 0.00 68 1014.5
20260906042029 67 1 0.0 1.0 0.00 0.00 0.00 68 1014.5
20260906041523 67 89 0.0 1.0 0.00 0.00 0.00 67 1014.7
20260906041018 67 178 0.0 1.0 0.00 0.00 0.00 68 1014.5
20260906040543 67 56 0.0 1.0 0.00 0.00 0.00 67 1014.5
20260906040033 68 89 0.0 1.0 0.00 0.00 0.00 68 1014.4
20260906035536 68 28 0.0 1.0 0.00 0.00 0.00 67 1014.4
20260906035048 68 331 0.0 1.0 0.00 0.00 0.00 67 1014.4
20260906034527 69 331 0.0 1.0 0.00 0.00 0.00 67 1014.4
20260906034021 69 314 0.0 1.0 0.00 0.00 0.00 67 1014.2
20260906033522 69 314 0.0 1.0 0.00 0.00 0.00 66 1014.1
20260906033020 70 46 0.0 1.0 0.00 0.00 0.00 66 1014.1
20260906032523 70 46 0.0 1.0 0.00 0.00 0.00 65 1014.1
20260906032016 70 240 0.0 2.0 0.00 0.00 0.00 64 1014.0
20260906031538 70 269 0.0 2.0 0.00 0.00 0.00 64 1013.9
20260906031027 71 314 1.0 3.0 0.00 0.00 0.00 64 1013.8
20260906030551 71 222 1.0 3.0 0.00 0.00 0.00 63 1013.8
20260906030024 71 1 1.0 3.0 0.00 0.00 0.00 62 1013.8
20260906025527 72 331 0.0 3.0 0.00 0.00 0.00 61 1013.8
20260906025024 72 286 1.0 5.0 0.00 0.00 0.00 60 1013.8
20260906024525 73 324 1.0 5.0 0.00 0.00 0.00 59 1013.8
20260906024020 73 314 0.0 2.0 0.00 0.00 0.00 58 1013.8
20260906023521 74 295 0.0 2.0 0.00 0.00 0.00 57 1013.8
20260906023033 74 314 0.0 2.0 0.00 0.00 0.00 56 1013.8
20260906022535 74 269 1.0 2.0 0.00 0.00 0.00 55 1013.8
20260906022027 75 218 1.0 2.0 0.00 0.00 0.00 54 1013.7
20260906021549 75 324 1.0 5.0 0.00 0.00 0.00 53 1013.7
20260906021016 75 178 1.0 5.0 0.00 0.00 0.00 52 1013.7
20260906020541 76 1 1.0 2.0 0.00 0.00 0.00 51 1013.7
20260906020054 76 53 2.0 3.0 0.00 0.00 0.00 50 1013.6
20260906015536 77 89 0.0 6.0 0.00 0.00 0.00 50 1013.7
20260906015028 77 314 2.0 6.0 0.00 0.00 0.00 48 1013.7
20260906014543 78 222 1.0 3.0 0.00 0.00 0.00 48 1013.7
20260906014019 78 314 1.0 3.0 0.00 0.00 0.00 47 1013.5
20260906013541 78 167 2.0 3.0 0.00 0.00 0.00 46 1013.5
20260906013034 79 32 1.0 5.0 0.00 0.00 0.00 45 1013.5
20260906012533 79 72 1.0 5.0 0.00 0.00 0.00 44 1013.6
20260906012025 80 56 3.0 8.0 0.00 0.00 0.00 43 1013.7
20260906011521 80 1 3.0 8.0 0.00 0.00 0.00 43 1013.5
20260906011032 80 197 2.0 7.0 0.00 0.00 0.00 42 1013.6
20260906010605 81 279 2.0 7.0 0.00 0.00 0.00 42 1013.6
20260906010053 81 178 3.0 7.0 0.00 0.00 0.00 41 1013.6
20260906005535 81 250 2.0 8.0 0.00 0.00 0.00 40 1013.5
20260906005023 82 178 2.0 8.0 0.00 0.00 0.00 41 1013.5
20260906004524 82 257 3.0 7.0 0.00 0.00 0.00 39 1013.5
20260906004022 82 302 2.0 8.0 0.00 0.00 0.00 39 1013.4
20260906003524 83 15 2.0 10.0 0.00 0.00 0.00 39 1013.3
20260906003016 83 46 2.0 10.0 0.00 0.00 0.00 40 1013.4
20260906002538 83 238 3.0 8.0 0.00 0.00 0.00 38 1013.4
20260906002025 84 335 2.0 6.0 0.00 0.00 0.00 37 1013.4
20260906001527 84 209 2.0 6.0 0.00 0.00 0.00 37 1013.3
20260906001025 85 331 2.0 5.0 0.00 0.00 0.00 36 1013.3
20260906000549 85 259 1.0 9.0 0.00 0.00 0.00 37 1013.5
20260906000023 85 238 3.0 9.0 0.00 0.00 0.00 37 1013.3
20260905235545 85 178 2.0 7.0 0.00 0.00 0.00 38 1013.3
20260905235033 85 145 2.0 7.0 0.00 0.00 0.00 38 1013.3
20260905234534 85 286 3.0 7.0 0.00 0.00 0.00 38 1013.3
20260905234024 85 46 2.0 10.0 0.00 0.00 0.00 39 1013.2
20260905233519 86 222 4.0 10.0 0.00 0.00 0.00 39 1013.3
20260905233032 86 354 3.0 9.0 0.00 0.00 0.00 38 1013.3
20260905232533 86 219 4.0 9.0 0.00 0.00 0.00 39 1013.3
20260905232020 87 281 3.0 8.0 0.00 0.00 0.00 38 1013.3
20260905231521 87 222 3.0 7.0 0.00 0.00 0.00 37 1013.2
20260905231031 86 269 3.0 7.0 0.00 0.00 0.00 38 1013.3
20260905230606 86 117 2.0 6.0 0.00 0.00 0.00 37 1013.3
20260905230030 86 303 2.0 9.0 0.00 0.00 0.00 37 1013.3
20260905225524 86 28 3.0 9.0 0.00 0.00 0.00 37 1013.3
20260905225019 86 331 3.0 9.0 0.00 0.00 0.00 39 1013.3
20260905224541 86 355 3.0 10.0 0.00 0.00 0.00 39 1013.4
20260905224031 86 322 4.0 9.0 0.00 0.00 0.00 39 1013.3
20260905223534 87 219 4.0 9.0 0.00 0.00 0.00 39 1013.4
20260905223026 87 46 4.0 9.0 0.00 0.00 0.00 40 1013.3
20260905222527 87 222 2.0 9.0 0.00 0.00 0.00 42 1013.3
20260905222035 87 112 2.0 8.0 0.00 0.00 0.00 41 1013.4
20260905221537 87 53 3.0 11.0 0.00 0.00 0.00 41 1013.4
20260905221027 87 340 4.0 11.0 0.00 0.00 0.00 39 1013.5
20260905220603 88 336 3.0 7.0 0.00 0.00 0.00 41 1013.4
20260905220029 88 178 3.0 6.0 0.00 0.00 0.00 43 1013.5
20260905215526 87 253 3.0 6.0 0.00 0.00 0.00 44 1013.5
20260905215018 88 6 2.0 10.0 0.00 0.00 0.00 45 1013.7
20260905214519 87 112 3.0 10.0 0.00 0.00 0.00 46 1013.8
20260905214038 87 238 4.0 9.0 0.00 0.00 0.00 46 1013.8
20260905213536 86 309 3.0 6.0 0.00 0.00 0.00 49 1013.8
20260905213028 86 321 3.0 8.0 0.00 0.00 0.00 48 1013.8
20260905212525 87 1 3.0 9.0 0.00 0.00 0.00 46 1013.9
20260905212035 87 297 3.0 10.0 0.00 0.00 0.00 45 1013.9
20260905211534 87 326 4.0 10.0 0.00 0.00 0.00 42 1014.0
20260905211046 87 331 3.0 9.0 0.00 0.00 0.00 42 1014.1
20260905210550 87 291 3.0 8.0 0.00 0.00 0.00 43 1014.0
20260905210024 87 8 3.0 8.0 0.00 0.00 0.00 44 1014.0
20260905205522 88 314 4.0 8.0 0.00 0.00 0.00 42 1014.0
20260905205033 88 307 3.0 6.0 0.00 0.00 0.00 39 1014.0
20260905204536 89 46 3.0 9.0 0.00 0.00 0.00 37 1013.9
20260905204028 90 269 3.0 10.0 0.00 0.00 0.00 39 1014.0
20260905203528 90 178 4.0 10.0 0.00 0.00 0.00 30 1014.1
20260905203018 90 218 4.0 8.0 0.00 0.00 0.00 26 1014.2
20260905202534 90 206 5.0 8.0 0.00 0.00 0.00 27 1014.3
20260905202025 89 152 4.0 8.0 0.00 0.00 0.00 28 1014.3
20260905201539 89 226 4.0 8.0 0.00 0.00 0.00 30 1014.3
20260905201030 88 229 3.0 7.0 0.00 0.00 0.00 29 1014.4
20260905200552 88 276 2.0 5.0 0.00 0.00 0.00 30 1014.5
20260905200054 88 340 2.0 6.0 0.00 0.00 0.00 30 1014.6
20260905195542 88 149 2.0 8.0 0.00 0.00 0.00 30 1014.5
20260905195033 87 250 2.0 7.0 0.00 0.00 0.00 29 1014.5
20260905194534 86 200 2.0 7.0 0.00 0.00 0.00 32 1014.7
20260905194026 87 105 3.0 6.0 0.00 0.00 0.00 30 1014.6
20260905193524 87 1 1.0 7.0 0.00 0.00 0.00 31 1014.6
20260905193034 86 269 3.0 7.0 0.00 0.00 0.00 30 1014.6
20260905192557 86 53 1.0 5.0 0.00 0.00 0.00 30 1014.7
20260905192025 86 187 2.0 5.0 0.00 0.00 0.00 30 1014.8
20260905191522 86 127 2.0 8.0 0.00 0.00 0.00 31 1014.9
20260905191029 86 197 3.0 8.0 0.00 0.00 0.00 31 1015.0
20260905190553 85 155 2.0 7.0 0.00 0.00 0.00 32 1015.1
20260905190027 84 120 1.0 8.0 0.00 0.00 0.00 32 1015.1
20260905185528 84 113 2.0 7.0 0.00 0.00 0.00 34 1015.1
20260905185017 84 110 3.0 6.0 0.00 0.00 0.00 35 1015.1
20260905184536 84 89 1.0 6.0 0.00 0.00 0.00 36 1015.2
20260905184021 84 152 2.0 4.0 0.00 0.00 0.00 34 1015.2
20260905183524 84 46 1.0 4.0 0.00 0.00 0.00 37 1015.2
20260905183055 83 124 2.0 5.0 0.00 0.00 0.00 37 1015.2
20260905182554 83 203 2.0 6.0 0.00 0.00 0.00 41 1015.3
20260905182025 83 59 2.0 6.0 0.00 0.00 0.00 38 1015.4
20260905181524 83 140 2.0 6.0 0.00 0.00 0.00 39 1015.5
20260905181055 83 171 2.0 6.0 0.00 0.00 0.00 40 1015.5
20260905180627 82 269 2.0 6.0 0.00 0.00 0.00 39 1015.5
20260905180031 81 142 3.0 7.0 0.00 0.00 0.00 38 1015.5
20260905175533 80 1 2.0 5.0 0.00 0.00 0.00 41 1015.5
20260905175040 80 206 1.0 5.0 0.00 0.00 0.00 41 1015.5
20260905174601 80 1 1.0 5.0 0.00 0.00 0.00 39 1015.4
20260905174032 80 240 1.0 5.0 0.00 0.00 0.00 42 1015.5
20260905173535 79 178 2.0 5.0 0.00 0.00 0.00 40 1015.4
20260905173046 79 46 0.0 5.0 0.00 0.00 0.00 43 1015.4
20260905172544 79 229 3.0 5.0 0.00 0.00 0.00 45 1015.5
20260905172034 79 171 1.0 5.0 0.00 0.00 0.00 45 1015.4
20260905171536 78 178 3.0 5.0 0.00 0.00 0.00 47 1015.5
20260905171028 77 245 2.0 5.0 0.00 0.00 0.00 49 1015.4
20260905170552 77 28 1.0 5.0 0.00 0.00 0.00 49 1015.3
20260905170056 77 201 2.0 5.0 0.00 0.00 0.00 50 1015.5
20260905165555 76 161 2.0 4.0 0.00 0.00 0.00 51 1015.4
20260905165025 75 186 2.0 5.0 0.00 0.00 0.00 52 1015.4
20260905164538 74 229 3.0 5.0 0.00 0.00 0.00 57 1015.4
20260905164029 74 194 2.0 4.0 0.00 0.00 0.00 63 1015.4
20260905163525 73 269 2.0 3.0 0.00 0.00 0.00 65 1015.4
20260905163035 72 269 1.0 3.0 0.00 0.00 0.00 69 1015.2
20260905162534 72 117 2.0 3.0 0.00 0.00 0.00 68 1015.3
20260905162046 71 100 1.0 4.0 0.00 0.00 0.00 70 1015.2
20260905161526 70 206 2.0 4.0 0.00 0.00 0.00 74 1015.2
20260905161022 69 233 2.0 3.0 0.00 0.00 0.00 76 1015.2
20260905160542 68 178 1.0 2.0 0.00 0.00 0.00 79 1015.2
20260905160030 67 178 1.0 3.0 0.00 0.00 0.00 81 1015.3
20260905155523 65 178 2.0 3.0 0.00 0.00 0.00 89 1015.2
20260905155041 64 89 1.0 3.0 0.00 0.00 0.00 92 1015.2
20260905154541 63 108 1.0 3.0 0.00 0.00 0.00 94 1015.2
20260905154026 62 63 2.0 2.0 0.00 0.00 0.00 94 1015.2
20260905153524 60 105 1.0 2.0 0.00 0.00 0.00 94 1015.2
20260905153056 59 117 1.0 2.0 0.00 0.00 0.00 94 1015.1
20260905152536 58 89 1.0 2.0 0.00 0.00 0.00 94 1015.2